Oelwein, IA

6:53 PM CDT on August 19, 2019 (GMT -0500)
Oelwein Municipal

Weather History for KOLZ - June, 2019

Change the Weather History Date:

Saturday, June 1, 2019

  Actual Average Record
Temperature  
Mean Temperature 67 °F -  
Max Temperature 77 °F 76 °F 91 °F (2002)
Min Temperature 55 °F 52 °F 36 °F (1964)
Cooling Degree Days 2    
Growing Degree Days 17 (Base 50)    
Moisture  
Dew Point 59 °F    
Average Humidity 74    
Maximum Humidity 94    
Minimum Humidity 47    
Precipitation  
Precipitation 0.00 in - - ()
Sea Level Pressure  
Sea Level Pressure 29.82 in    
Wind  
Wind Speed 10 mph (WNW)    
Max Wind Speed 20 mph    
Max Gust Speed 25 mph    
Visibility 10 miles    
Events      
Averages and records for this station are not official NWS values.
T = Trace of Precipitation, MM = Missing Value Source: NWS Daily Summary

Daily Weather History Graph

Daily Weather History Graph

Search for Another Location

Airport or City:

Astronomy

Jun. 01, 2019 Rise Set
Actual Time 5:32 AM CDT 8:39 PM CDT
Civil Twilight 4:58 AM CDT 9:13 PM CDT
Nautical Twilight 4:14 AM CDT 9:57 PM CDT
Astronomical Twilight 3:22 AM CDT 10:49 PM CDT
Moon 4:41 AM CDT (6/1) 6:49 PM CDT (6/1)
Length of Visible Light 16h 14m
Length of Day
15h 06m
Waning Crescent, 4% of the Moon is Illuminated
Jun 1
Waning Crescent
Jun 3
New
Jun 10
First Quarter
Jun 17
Full
Jun 25
Last Quarter

Hourly Weather History & Observations

Time (CDT) Temp. Dew Point Humidity Pressure Visibility Wind Dir Wind Speed Gust Speed Precip Events Conditions
12:15 AM 66.2 °F 60.8 °F 83% 29.81 in 10.0 mi SW 10.4 mph - N/A   Clear
12:35 AM 66.2 °F 60.8 °F 83% 29.81 in 10.0 mi SW 9.2 mph - N/A   Clear
12:55 AM 66.2 °F 60.8 °F 83% 29.81 in 10.0 mi SW 6.9 mph - N/A   Clear
1:15 AM 66.2 °F 59.0 °F 78% 29.81 in 10.0 mi WSW 6.9 mph - N/A   Clear
1:35 AM 66.2 °F 59.0 °F 78% 29.81 in 10.0 mi WSW 6.9 mph - N/A   Clear
1:55 AM 66.2 °F 59.0 °F 78% 29.81 in 10.0 mi WSW 8.1 mph - N/A   Clear
2:15 AM 66.2 °F 60.8 °F 83% 29.81 in 10.0 mi WSW 6.9 mph - N/A   Scattered Clouds
2:35 AM 66.2 °F 60.8 °F 83% 29.81 in 10.0 mi WSW 9.2 mph - N/A   Overcast
2:55 AM 66.2 °F 60.8 °F 83% 29.80 in 10.0 mi WSW 8.1 mph - N/A   Overcast
3:15 AM 66.2 °F 60.8 °F 83% 29.80 in 10.0 mi WSW 10.4 mph - N/A   Overcast
3:35 AM 66.2 °F 60.8 °F 83% 29.80 in 10.0 mi WSW 9.2 mph - N/A   Overcast
3:55 AM 66.2 °F 60.8 °F 83% 29.80 in 10.0 mi WSW 9.2 mph - N/A   Overcast
4:15 AM 66.2 °F 60.8 °F 83% 29.80 in 10.0 mi West 9.2 mph - N/A   Mostly Cloudy
4:35 AM 64.4 °F 60.8 °F 88% 29.81 in 10.0 mi WSW 9.2 mph - N/A   Scattered Clouds
4:55 AM 64.4 °F 60.8 °F 88% 29.81 in 10.0 mi WSW 9.2 mph - N/A   Scattered Clouds
5:15 AM 64.4 °F 60.8 °F 88% 29.81 in 10.0 mi West 9.2 mph - N/A   Clear
5:35 AM 62.6 °F 60.8 °F 94% 29.81 in 10.0 mi WSW 8.1 mph - N/A   Clear
5:55 AM 62.6 °F 60.8 °F 94% 29.81 in 10.0 mi WSW 6.9 mph - N/A   Clear
6:15 AM 62.6 °F 60.8 °F 94% 29.81 in 10.0 mi WSW 6.9 mph - N/A   Clear
6:35 AM 62.6 °F 60.8 °F 94% 29.81 in 10.0 mi WSW 5.8 mph - N/A   Clear
6:55 AM 64.4 °F 60.8 °F 88% 29.81 in 10.0 mi West 6.9 mph - N/A   Clear
7:15 AM 64.4 °F 62.6 °F 94% 29.81 in 10.0 mi West 8.1 mph - N/A   Clear
7:35 AM 66.2 °F 62.6 °F 88% 29.81 in 10.0 mi West 5.8 mph - N/A   Clear
7:55 AM 68.0 °F 62.6 °F 83% 29.81 in 10.0 mi West 9.2 mph - N/A   Clear
8:15 AM 68.0 °F 62.6 °F 83% 29.80 in 10.0 mi West 6.9 mph - N/A   Clear
8:35 AM 69.8 °F 62.6 °F 78% 29.81 in 10.0 mi West 5.8 mph - N/A   Clear
8:55 AM 69.8 °F 62.6 °F 78% 29.81 in 10.0 mi West 10.4 mph - N/A   Clear
9:15 AM 69.8 °F 62.6 °F 78% 29.81 in 10.0 mi West 8.1 mph - N/A   Clear
9:35 AM 71.6 °F 62.6 °F 73% 29.82 in 10.0 mi West 9.2 mph - N/A   Clear
9:55 AM 69.8 °F 62.6 °F 78% 29.82 in 10.0 mi WSW 10.4 mph - N/A   Clear
10:15 AM 71.6 °F 62.6 °F 73% 29.82 in 10.0 mi WSW 9.2 mph 18.4 mph N/A   Clear
10:35 AM 69.8 °F 60.8 °F 73% 29.83 in 10.0 mi West 15.0 mph - N/A   Scattered Clouds
10:55 AM 69.8 °F 62.6 °F 78% 29.83 in 10.0 mi WNW 9.2 mph - N/A   Scattered Clouds
11:15 AM 68.0 °F 64.4 °F 88% 29.83 in 9.0 mi West 10.4 mph - N/A   Clear
11:35 AM 68.0 °F 64.4 °F 88% 29.83 in 8.0 mi WNW 9.2 mph - N/A   Clear
11:55 AM 68.0 °F 64.4 °F 88% 29.82 in 10.0 mi WNW 9.2 mph - N/A   Partly Cloudy
12:15 PM 68.0 °F 64.4 °F 88% 29.82 in 10.0 mi WNW 8.1 mph - N/A   Scattered Clouds
12:35 PM 68.0 °F 64.4 °F 88% 29.82 in 10.0 mi WNW 5.8 mph - N/A   Mostly Cloudy
12:55 PM 69.8 °F 64.4 °F 83% 29.82 in 10.0 mi West 6.9 mph - N/A   Overcast
1:15 PM 73.4 °F 62.6 °F 69% 29.81 in 10.0 mi NW 8.1 mph - N/A   Mostly Cloudy
1:35 PM 73.4 °F 60.8 °F 65% 29.81 in 10.0 mi NW 13.8 mph - N/A   Mostly Cloudy
1:55 PM 75.2 °F 62.6 °F 65% 29.81 in 10.0 mi NW 11.5 mph - N/A   Mostly Cloudy
2:15 PM 77.0 °F 59.0 °F 54% 29.81 in 10.0 mi NW 12.7 mph 19.6 mph N/A   Mostly Cloudy
2:35 PM 77.0 °F 57.2 °F 50% 29.81 in 10.0 mi NW 11.5 mph 21.9 mph N/A   Scattered Clouds
2:55 PM 77.0 °F 55.4 °F 47% 29.80 in 10.0 mi NW 13.8 mph 19.6 mph N/A   Clear
3:15 PM 77.0 °F 57.2 °F 50% 29.81 in 10.0 mi NW 19.6 mph - N/A   Clear
3:35 PM 77.0 °F 59.0 °F 54% 29.80 in 10.0 mi NW 17.3 mph 25.3 mph N/A   Partly Cloudy
3:55 PM 77.0 °F 59.0 °F 54% 29.80 in 10.0 mi NW 17.3 mph - N/A   Scattered Clouds
4:15 PM 75.2 °F 59.0 °F 57% 29.80 in 10.0 mi NW 16.1 mph 25.3 mph N/A   Scattered Clouds
4:35 PM 75.2 °F 59.0 °F 57% 29.80 in 10.0 mi WNW 15.0 mph - N/A   Scattered Clouds
4:55 PM 75.2 °F 59.0 °F 57% 29.80 in 10.0 mi NW 11.5 mph 20.7 mph N/A   Scattered Clouds
5:15 PM 75.2 °F 57.2 °F 53% 29.80 in 10.0 mi NW 13.8 mph 20.7 mph N/A   Mostly Cloudy
5:35 PM 73.4 °F 59.0 °F 61% 29.80 in 10.0 mi NNW 11.5 mph 21.9 mph N/A   Mostly Cloudy
5:55 PM 75.2 °F 59.0 °F 57% 29.80 in 10.0 mi NNW 18.4 mph - N/A   Mostly Cloudy
6:15 PM 73.4 °F 57.2 °F 57% 29.81 in 10.0 mi NW 17.3 mph 24.2 mph N/A   Mostly Cloudy
6:35 PM 73.4 °F 57.2 °F 57% 29.81 in 10.0 mi NW 17.3 mph 23.0 mph N/A   Scattered Clouds
6:55 PM 73.4 °F 55.4 °F 53% 29.81 in 10.0 mi NNW 16.1 mph 21.9 mph N/A   Partly Cloudy
7:15 PM 71.6 °F 55.4 °F 57% 29.81 in 10.0 mi NNW 18.4 mph - N/A   Partly Cloudy
7:35 PM 69.8 °F 53.6 °F 56% 29.82 in 10.0 mi North 13.8 mph 20.7 mph N/A   Partly Cloudy
7:55 PM 69.8 °F 53.6 °F 56% 29.83 in 10.0 mi NNW 11.5 mph 19.6 mph N/A   Clear
8:15 PM 68.0 °F 53.6 °F 60% 29.84 in 10.0 mi North 10.4 mph - N/A   Clear
8:35 PM 66.2 °F 53.6 °F 64% 29.84 in 10.0 mi North 11.5 mph - N/A   Clear
8:55 PM 64.4 °F 53.6 °F 68% 29.85 in 10.0 mi North 8.1 mph - N/A   Clear
9:15 PM 62.6 °F 53.6 °F 72% 29.85 in 10.0 mi North 8.1 mph - N/A   Clear
9:35 PM 62.6 °F 51.8 °F 68% 29.87 in 10.0 mi North 6.9 mph - N/A   Clear
9:55 PM 62.6 °F 51.8 °F 68% 29.87 in 10.0 mi North 6.9 mph - N/A   Clear
10:15 PM 62.6 °F 53.6 °F 72% 29.88 in 10.0 mi North 5.8 mph - N/A   Clear
10:35 PM 60.8 °F 53.6 °F 77% 29.88 in 10.0 mi NNW 4.6 mph - N/A   Clear
10:55 PM 59.0 °F 51.8 °F 77% 29.89 in 10.0 mi NNW 5.8 mph - N/A   Clear
11:15 PM 57.2 °F 53.6 °F 88% 29.89 in 10.0 mi NNW 5.8 mph - N/A   Clear
11:35 PM 57.2 °F 53.6 °F 88% 29.89 in 10.0 mi NNW 5.8 mph - N/A   Clear
11:55 PM 55.4 °F 51.8 °F 88% 29.89 in 10.0 mi NNW 5.8 mph - N/A   Clear